Clearfield, PA

12:47 AM EDT on April 23, 2018 (GMT -0400)
Clearfield-Lawrence

Weather History for KFIG - November, 2012

Change the Weather History Date:

Tuesday, November 27, 2012

  Actual Average (KDUJ) Record (KDUJ)
Temperature  
Mean Temperature 31 °F -  
Max Temperature 36 °F 44 °F 69 °F (1990)
Min Temperature 26 °F 30 °F 12 °F (1996)
Degree Days  
Heating Degree Days 34    
Moisture  
Dew Point 27 °F    
Average Humidity 86    
Maximum Humidity 100    
Minimum Humidity 61    
Precipitation  
Precipitation 0.06 in - - ()
Sea Level Pressure  
Sea Level Pressure 30.24 in    
Wind  
Wind Speed 1 mph (NNW)    
Max Wind Speed 9 mph    
Max Gust Speed -    
Visibility 5 miles    
Events Snow    
Averages and records for this station are not official NWS values.
T = Trace of Precipitation, MM = Missing Value Source: NWS Daily Summary

Daily Weather History Graph

Daily Weather History Graph

Search for Another Location

Airport or City:

Astronomy

Nov. 27, 2012 Rise Set
Actual Time 7:15 AM EST 4:47 PM EST
Civil Twilight 6:45 AM EST 5:17 PM EST
Nautical Twilight 6:11 AM EST 5:51 PM EST
Astronomical Twilight 5:38 AM EST 6:24 PM EST
Moon 4:17 PM EST (11/27) 6:18 AM EST (11/27)
Length of Visible Light 10h 32m
Length of Day
9h 31m
Waxing Gibbous, 99% of the Moon is Illuminated
Nov 27
Waxing Gibbous
Nov 28
Full
Dec 6
Last Quarter
Dec 13
New
Dec 20
First Quarter

Hourly Weather History & Observations

Time (EST) Temp. Windchill Dew Point Humidity Pressure Visibility Wind Dir Wind Speed Gust Speed Precip Events Conditions
12:54 AM 30.0 °F - 24.1 °F 79% 30.24 in 10.0 mi Calm Calm - N/A   Overcast
1:54 AM 30.9 °F - 25.0 °F 79% 30.25 in 10.0 mi Calm Calm - N/A   Overcast
2:54 AM 28.9 °F 25.2 °F 25.0 °F 85% 30.24 in 4.0 mi NNE 3.5 mph - 0.00 in Snow Light Snow
3:41 AM 30.2 °F - 26.6 °F 86% 30.19 in 2.0 mi Calm Calm - 0.00 in Snow Light Snow
3:50 AM 30.2 °F - 26.6 °F 86% 30.19 in 2.0 mi Calm Calm - 0.00 in Snow Light Snow
3:54 AM 30.0 °F - 27.0 °F 88% 30.24 in 2.5 mi Calm Calm - 0.00 in Snow Light Snow
4:15 AM 28.4 °F 24.6 °F 26.6 °F 93% 30.18 in 1.2 mi North 3.5 mph - 0.00 in Snow Light Snow
4:54 AM 28.9 °F - 28.0 °F 96% 30.23 in 1.2 mi Calm Calm - 0.01 in Snow Light Snow
5:54 AM 28.9 °F - 28.0 °F 96% 30.23 in 1.2 mi Calm Calm - 0.02 in Snow Light Snow
6:25 AM 28.4 °F 24.6 °F 28.4 °F 100% 30.17 in 1.2 mi NNE 3.5 mph - 0.00 in Snow Light Snow
6:54 AM 28.9 °F - 28.0 °F 96% 30.24 in 1.5 mi Calm Calm - 0.01 in Snow Light Snow
7:05 AM 28.4 °F - 28.4 °F 100% 30.18 in 1.8 mi Calm Calm - 0.00 in Snow Light Snow
7:17 AM 28.4 °F - 28.4 °F 100% 30.19 in 1.5 mi Calm Calm - 0.01 in Snow Light Snow
7:46 AM 30.2 °F - 28.4 °F 93% 30.20 in 0.8 mi Calm Calm - 0.01 in Snow Light Snow
7:54 AM 30.0 °F - 28.0 °F 92% 30.25 in 0.8 mi Calm Calm - 0.01 in Snow Light Snow
8:04 AM 30.2 °F - 28.4 °F 93% 30.20 in 1.0 mi Calm Calm - 0.00 in Snow Light Snow
8:31 AM 30.2 °F - 28.4 °F 93% 30.21 in 1.2 mi Calm Calm - 0.00 in Snow Light Snow
8:54 AM 30.9 °F 27.5 °F 28.9 °F 92% 30.26 in 1.2 mi NNE 3.5 mph - 0.01 in Snow Light Snow
9:15 AM 30.2 °F - 30.2 °F 100% 30.21 in 1.5 mi Calm Calm - 0.00 in Snow Light Snow
9:34 AM 32.0 °F - 30.2 °F 93% 30.22 in 2.0 mi Calm Calm - 0.00 in Snow Light Snow
9:54 AM 32.0 °F - 30.9 °F 96% 30.28 in 2.5 mi Calm Calm - 0.00 in Snow Light Snow
9:58 AM 32.0 °F - 30.2 °F 93% 30.23 in 2.5 mi Calm Calm - 0.00 in Snow Light Snow
10:54 AM 33.1 °F - 30.9 °F 92% 30.28 in 1.8 mi Calm Calm - 0.00 in Snow Light Snow
11:00 AM 33.8 °F - 30.2 °F 87% 30.22 in 2.0 mi Calm Calm - 0.00 in Snow Light Snow
11:18 AM 33.8 °F - 32.0 °F 93% 30.22 in 2.5 mi Calm Calm - 0.00 in Snow Light Snow
11:28 AM 33.8 °F - 32.0 °F 93% 30.22 in 4.0 mi Calm Calm - 0.00 in   Overcast
11:54 AM 34.0 °F - 30.0 °F 85% 30.27 in 10.0 mi Calm Calm - 0.00 in   Overcast
12:04 PM 33.8 °F - 30.2 °F 87% 30.21 in 10.0 mi Calm Calm - N/A   Overcast
12:54 PM 36.0 °F 31.1 °F 30.0 °F 79% 30.25 in 10.0 mi North 5.8 mph - N/A   Overcast
1:21 PM 35.6 °F 29.9 °F 28.4 °F 75% 30.19 in 10.0 mi North 6.9 mph - N/A   Overcast
1:43 PM 33.8 °F 27.7 °F 28.4 °F 81% 30.20 in 10.0 mi NNW 6.9 mph - N/A   Overcast
1:54 PM 34.0 °F 27.2 °F 28.9 °F 82% 30.25 in 10.0 mi NNW 8.1 mph - N/A   Overcast
2:54 PM 34.0 °F 28.8 °F 28.0 °F 79% 30.25 in 10.0 mi NW 5.8 mph - N/A   Overcast
3:54 PM 33.1 °F 25.5 °F 26.1 °F 75% 30.25 in 10.0 mi NW 9.2 mph - N/A   Overcast
4:54 PM 33.1 °F 27.7 °F 24.1 °F 70% 30.26 in 10.0 mi NW 5.8 mph - N/A   Overcast
5:54 PM 32.0 °F 26.4 °F 19.9 °F 61% 30.25 in 10.0 mi NNE 5.8 mph - N/A   Overcast
6:54 PM 30.9 °F 27.5 °F 19.9 °F 64% 30.28 in 10.0 mi NNW 3.5 mph - N/A   Overcast
7:54 PM 30.0 °F 26.5 °F 21.9 °F 72% 30.29 in 10.0 mi NW 3.5 mph - N/A   Overcast
8:54 PM 28.0 °F - 21.9 °F 78% 30.29 in 10.0 mi Calm Calm - N/A   Overcast
9:54 PM 28.9 °F - 19.9 °F 69% 30.28 in 10.0 mi Calm Calm - N/A   Mostly Cloudy
10:54 PM 26.1 °F - 21.0 °F 81% 30.29 in 10.0 mi Calm Calm - N/A   Overcast
11:54 PM 26.1 °F - 21.0 °F 81% 30.29 in 10.0 mi Calm Calm - N/A   Overcast